This demonstration page uses our WeatherBlox Daily Observations layout. Learn more.

Left ArrowRight Arrow

40.92945, -100.16068

Hourly Observations for June 8, 2016

Temp ( °F °C ) Dew Point ( °F °C ) Humidity (%) Winds ( mph kmh ) Pressure ( in mb ) Visibility ( mi km ) Precip ( " mm )
12:15 am 00:15 Clear 67 19.5 55 12.7 65 65 SE 8 13 29.83 1010 10 16 N/A
12:35 am 00:35 Clear 66 18.7 55 12.9 69 69 SE 7 11 29.85 1011 10 16 N/A
12:55 am 00:55 Clear 66 19 55 12.7 67 67 SE 7 11 29.83 1010 10 16 N/A
1:15 am 01:15 Clear 65 18.5 55 12.7 69 69 SE 7 11 29.85 1011 10 16 N/A
1:35 am 01:35 Clear 65 18.5 55 12.5 68 68 SE 6 9 29.85 1011 10 16 N/A
1:55 am 01:55 Partly Cloudy 66 18.8 54 12.2 66 66 SSE 6 9 29.85 1011 10 16 N/A
2:15 am 02:15 Partly Cloudy 67 19.5 54 12 62 62 SSE 12 19 29.83 1010 10 16 N/A
2:35 am 02:35 Partly Cloudy 67 19.3 54 12 63 63 SSE 12 19 29.83 1010 10 16 N/A
2:55 am 02:55 Clear 67 19.5 53 11.9 62 62 SSE 13 20 29.80 1009 10 16 N/A
3:15 am 03:15 Clear 67 19.2 54 12.2 64 64 SSE 10 17 29.80 1009 10 16 N/A
3:35 am 03:35 Clear 66 18.8 55 12.5 67 67 SSE 10 17 29.80 1009 10 16 N/A
3:55 am 03:55 Clear 65 18.6 55 12.7 69 69 SE 7 11 29.83 1010 10 16 N/A
4:15 am 04:15 Clear 64 18 55 13 73 73 SE 7 11 29.83 1010 10 16 N/A
4:35 am 04:35 Clear 65 18.1 56 13.1 73 73 SE 6 9 29.83 1010 10 16 N/A
4:55 am 04:55 Clear 64 17.8 56 13.3 75 75 SE 5 7 29.83 1010 10 16 N/A
5:15 am 05:15 Clear 63 17.4 56 13.5 78 78 SE 5 7 29.80 1009 10 16 N/A
5:35 am 05:35 Clear 63 17.3 56 13.5 79 79 SE 5 7 29.80 1009 10 16 N/A
5:55 am 05:55 Clear 63 17.4 57 13.7 79 79 SE 6 9 29.80 1009 10 16 N/A
6:15 am 06:15 Sunny 64 17.5 57 14 80 80 SE 7 11 29.80 1009 10 16 N/A
6:35 am 06:35 Sunny 64 18 57 14.1 78 78 SE 6 9 29.80 1009 10 16 N/A
6:55 am 06:55 Sunny 65 18.6 58 14.5 77 77 SE 6 9 29.77 1008 10 16 N/A
7:15 am 07:15 Sunny 66 19 58 14.6 76 76 SSE 7 11 29.77 1008 10 16 N/A
7:35 am 07:35 Sunny 67 19.3 59 15 76 76 S 8 13 29.77 1008 10 16 N/A
7:55 am 07:55 Sunny 68 20 60 15.3 74 74 SSE 8 13 29.77 1008 10 16 N/A
8:15 am 08:15 Sunny 69 20.7 60 15.3 71 71 SSE 8 13 29.77 1008 10 16 N/A
8:35 am 08:35 Sunny 71 21.5 60 15.3 68 68 S 9 15 29.77 1008 10 16 N/A
8:55 am 08:55 Sunny 72 22 60 15.3 66 66 S 8 13 29.74 1007 10 16 N/A
9:15 am 09:15 Sunny 73 22.5 60 15.5 65 65 S 10 17 29.74 1007 10 16 N/A
9:35 am 09:35 Sunny 74 23.2 60 15.8 63 63 SSW 9 15 29.74 1007 10 16 N/A
9:55 am 09:55 Sunny 75 24 60 15.4 59 59 SSW 9 15 29.74 1007 10 16 N/A
10:15 am 10:15 Sunny 76 24.5 60 15.7 58 58 SSE 9 15 29.74 1007 10 16 N/A
10:35 am 10:35 Sunny 76 24.7 60 15.8 58 58 S 7 11 29.74 1007 10 16 N/A
10:55 am 10:55 Sunny 77 24.8 60 15.7 57 57 S 7 11 29.71 1006 10 16 N/A
11:15 am 11:15 Sunny 78 25.5 60 15.8 55 55 SE 8 13 29.68 1005 10 16 N/A
11:35 am 11:35 Sunny 79 26 61 16.2 55 55 SSE 10 17 29.68 1005 10 16 N/A
11:55 am 11:55 Sunny 79 26.3 61 16 53 53 SSE 10 17 29.68 1005 10 16 N/A
12:15 pm 12:15 Sunny 81 27.1 61 16.1 51 51 SSE 13 20 29.68 1005 10 16 N/A
12:35 pm 12:35 Sunny 82 27.6 61 16.3 50 50 SSE 10 17 29.68 1005 10 16 N/A
12:55 pm 12:55 Sunny 83 28.5 60 15.4 45 45 S 12 19 29.68 1005 10 16 N/A
1:15 pm 13:15 Sunny 84 29.1 60 15.7 44 44 SSE 14 22 29.65 1004 10 16 N/A
1:35 pm 13:35 Sunny 85 29.6 60 15.5 42 42 SSE 13 20 29.65 1004 10 16 N/A
1:55 pm 13:55 Sunny 86 30 60 15.7 42 42 SSE 14 22 29.65 1004 10 16 N/A
2:15 pm 14:15 Sunny 87 30.6 63 17.1 44 44 S 12 19 29.65 1004 10 16 N/A
2:35 pm 14:35 Sunny 87 30.6 62 16.7 43 43 S 13 20 29.62 1003 10 16 N/A
2:55 pm 14:55 Sunny 88 31 60 15.8 40 40 S 15 24 29.62 1003 10 16 N/A
3:15 pm 15:15 Sunny 88 31.1 60 15.7 39 39 SSW 15 24 29.62 1003 10 16 N/A
3:35 pm 15:35 Sunny 88 31.2 61 15.9 40 40 S 13 20 29.62 1003 10 16 N/A
3:55 pm 15:55 Sunny 88 31.2 62 16.4 41 41 S 15 24 29.62 1003 10 16 N/A
4:15 pm 16:15 Sunny 88 31.3 62 16.4 41 41 S 15 24 29.62 1003 10 16 N/A
4:35 pm 16:35 Sunny 88 31.3 60 15.6 39 39 SSE 12 19 29.62 1003 10 16 N/A
4:55 pm 16:55 Sunny 89 31.5 62 16.4 40 40 S 13 20 29.62 1003 10 16 N/A
5:15 pm 17:15 Sunny 89 31.5 62 16.4 40 40 SSE 10 17 29.62 1003 10 16 N/A
5:35 pm 17:35 Sunny 88 31.3 61 16.3 40 40 S 10 17 29.62 1003 10 16 N/A
5:55 pm 17:55 Sunny 88 31.3 62 16.5 41 41 SSE 9 15 29.59 1002 10 16 N/A
6:15 pm 18:15 Sunny 88 31.3 60 15.5 38 38 S 12 19 29.59 1002 10 16 N/A
6:35 pm 18:35 Sunny 88 31.3 61 15.9 39 39 SSE 8 13 29.59 1002 10 16 N/A
6:55 pm 18:55 Sunny 88 31 62 16.4 41 41 SSE 10 17 29.59 1002 10 16 N/A
7:15 pm 19:15 Sunny 87 30.7 61 16 41 41 S 10 17 29.59 1002 10 16 N/A
7:35 pm 19:35 Sunny 86 30.2 60 15.6 41 41 S 10 17 29.59 1002 10 16 N/A
7:55 pm 19:55 Sunny 85 29.5 62 16.7 46 46 SSE 8 13 29.59 1002 10 16 N/A
8:15 pm 20:15 Sunny 84 28.9 62 16.9 48 48 SSE 8 13 29.59 1002 10 16 N/A
8:35 pm 20:35 Sunny 82 27.8 62 16.6 51 51 SSE 7 11 29.62 1003 10 16 N/A
8:55 pm 20:55 Sunny 81 27 61 16.3 52 52 SE 6 9 29.62 1003 10 16 N/A
9:15 pm 21:15 Clear 80 26.5 61 16.1 53 53 SE 7 11 29.62 1003 10 16 N/A
9:35 pm 21:35 Clear 78 25.5 61 16.1 56 56 ESE 6 9 29.62 1003 10 16 N/A
9:55 pm 21:55 Clear 77 25.1 61 16 57 57 SE 7 11 29.62 1003 10 16 N/A
10:15 pm 22:15 Clear 77 25 60 15.6 56 56 SE 7 11 29.62 1003 10 16 N/A
10:35 pm 22:35 Clear 77 25 60 15.5 56 56 SE 9 15 29.62 1003 10 16 N/A
10:55 pm 22:55 Clear 77 25.1 60 15.5 55 55 SSE 9 15 29.65 1004 10 16 N/A
11:15 pm 23:15 Clear 76 24.6 59 15.1 56 56 S 10 17 29.62 1003 10 16 N/A
11:35 pm 23:35 Clear 77 25.2 57 14.1 50 50 S 15 24 29.62 1003 10 16 N/A
11:55 pm 23:55 Clear 77 25.2 57 13.7 49 49 S 16 26 29.62 1003 10 16 N/A

Powered by AerisWeather